Location: Bjelajci
(45.0103°N, 16.1758°E)
Time: 19:03:27
(UTC+00:00)

Cosmos 1140 Rocket - Pass Details

Date: 14 July 2020
Orbit: 744 x 768 km, 74.1° (Epoch: 05 August)

Event Time Altitude Azimuth Distance (km) Brightness Sun altitude
Exits shadow 00:52:11 35° 196° (SSW) 1,204 4.0 -18.7°
Maximum altitude 00:54:25 86° 110° (ESE) 770 3.4 -18.5°
Drops below altitude 10° 00:59:41 10° 22° (NNE) 2,311 7.2 -18.1°
Sets 01:02:04 0° 22° (NNE) 3,244 8.4 -17.9°
